STARLINK-30257, 57526

Orbit data source: Space-Track

STARLINK-30257, 57526 is a payload satellite owned by SpaceX/Seattle (US) in LEO that was launched on Tue, 08 Aug 2023 UTC via an FALCON 9 launch vehicle from the Air Force Western Test Range (AFWTR). Payload-class satellites include a variety of spacecraft equipped with specific instruments for various scientific and technological missions. These include communications satellites like Starlink; space stations such as the ISS; scientific satellites like the Hubble; Earth observation satellites from companies like Planet Labs, Umbra, and HawkEye 360; GPS; miniature CubeSats for education and research; and military/defense satellites.

Loading next visibility...
Identifier
57526, 2023-115F
Orbit
LEO
Country
Flag of USUS
Related business
Manufacturer
SpaceX/Seattle
Mission
Operational Commercial Communications
Bus & Motor
STARLINK V2M, Unknown motor
Mass
730 kg wet, ~700 kg dry
Launch date (UTC)
2023-08-08 (3 years ago)
Launch vehicle
FALCON 9
Launch site
Air Force Western Test Range (AFWTR)
Object type
Payload
Rocket body
Debris
Shape & HBR
Box + 2 Pan, 17.7 m
Radar Cross Section
33.884 m², Large (>1 m²)

Expand to show TLE details & history
Last TLE update: 2 days ago

TLE from 2 days ago
0 STARLINK-30257
1 57526U 23115F   26171.36867799  .00001808  00000-0  75202-4 0  9996
2 57526  43.0027 141.8419 0001186 278.5170  81.5547 15.27582189158054
Epoch: 2026-06-20T08:50Z
TLE epoch observation values (Epoch: 2026-06-20T08:50:53.778Z)
Latitude
-0.00003°
Longitude
100.5335°
Altitude
482.699 km
Speed
7.626 km/s
True Right ascension
09h 27m 22s
True Declination
0° 00' 00"
Sunlit
Object was in daylight at epoch
Visualization orbit readout
Latitude
Unknown
Longitude
Unknown
Altitude
Unknown
Speed
Unknown
Apparent Right ascension
Unknown
Apparent Declination
Unknown
Sunlit
N/A
Visualization observer readout
Local Sidereal Time
21:29:02
Azimuth
Unknown
Elevation
Unknown
Doppler factor
Unknown
Orbital elements
Apogee altitude
485.801 km
Perigee altitude
484.173 km
Semi-major axis
6,863.124 km
Eccentricity
0.00012
Inclination
43.0027°
RAAN
141.8419°
Arg. of periapsis
278.517°
True anomaly
81.56814°
Mean anomaly
81.5547°
Eccentric anomaly
81.56142°
Mean motion
3.81734 °/min
Orbital period
94.31 mins
BSTAR
0.000075202
Loading maneuver chart data...
Computing Atmospheric mass density...
Loading historical data...
Loading historical data...
Loading historical data...
Loading historical data...
Loading historical data...
Loading historical data...
Loading historical data...

Documentation

Showing up to 5 results
|